Weather History for Niagara Falls, NY

Change the Weather History Date:

Sunday, October 28, 2012

  Actual Average Record
Temperature  
Mean Temperature 42 °F -  
Max Temperature 42 °F 52 °F 72 °F (1989)
Min Temperature 41 °F 36 °F 26 °F (2011)
Degree Days  
Heating Degree Days 24    
Moisture  
Dew Point 39 °F    
Average Humidity 88    
Maximum Humidity 93    
Minimum Humidity 81    
Precipitation  
Precipitation 0.31 in - - ()
Sea Level Pressure  
Sea Level Pressure 30.05 in    
Wind  
Wind Speed 11 mph (NNE)    
Max Wind Speed 17 mph    
Max Gust Speed 22 mph    
Visibility 6 miles    
Events Rain    
Averages and records for this station are not official NWS values.
T = Trace of Precipitation, MM = Missing Value Source: NWS Daily Summary

Daily Weather History Graph

Daily Weather History Graph

Search for Another Location

Airport:

Trip Planner

Search our weather history database for the weather conditions in past years. The results will help you decide how hot, cold, wet, or windy it might be!

Date:

Astronomy

Oct. 28, 2012 Rise Set
Actual Time 7:45 AM EDT 6:12 PM EDT
Civil Twilight 7:16 AM EDT 6:41 PM EDT
Nautical Twilight 6:43 AM EDT 7:15 PM EDT
Astronomical Twilight 6:10 AM EDT 7:48 PM EDT
Moon 5:29 PM EDT (10/28) 6:36 AM EDT (10/28)
Length of Visible Light 11h 25m
Length of Day
10h 26m
Waxing Gibbous, 99% of the Moon is Illuminated
Oct 28
Waxing Gibbous
Oct 29
Full
Nov 6
Last Quarter
Nov 13
New
Nov 20
First Quarter

Hourly Weather History & Observations

Time (EDT) Temp. Windchill Dew Point Humidity Pressure Visibility Wind Dir Wind Speed Gust Speed Precip Events Conditions
12:53 AM 42.1 °F 35.2 °F 37.9 °F 85% 30.13 in 10.0 mi NNE 12.7 mph - N/A   Overcast
1:53 AM 42.8 °F 37.5 °F 37.4 °F 81% 30.10 in 10.0 mi North 9.2 mph - N/A   Overcast
2:53 AM 42.1 °F 37.1 °F 37.0 °F 82% 30.12 in 10.0 mi North 8.1 mph - N/A   Overcast
3:53 AM 42.1 °F 37.7 °F 37.0 °F 82% 30.11 in 10.0 mi NNE 6.9 mph - N/A   Overcast
4:53 AM 42.1 °F 35.7 °F 37.0 °F 82% 30.11 in 10.0 mi North 11.5 mph - N/A   Overcast
5:53 AM 42.1 °F 35.7 °F 37.0 °F 82% 30.12 in 10.0 mi NNE 11.5 mph - N/A   Overcast
6:53 AM 42.1 °F 35.7 °F 37.0 °F 82% 30.12 in 10.0 mi North 11.5 mph - N/A   Overcast
7:00 AM 42.8 °F 36.6 °F 37.4 °F 81% 30.08 in 10.0 mi NNE 11.5 mph - 0.00 in   Light Drizzle
7:53 AM 41.0 °F 34.7 °F 37.9 °F 89% 30.11 in 10.0 mi North 10.4 mph - 0.01 in Rain Light Rain
8:50 AM 41.0 °F 34.3 °F 37.4 °F 87% 30.08 in 6.0 mi NNE 11.5 mph - 0.02 in Rain Light Rain
8:53 AM 41.0 °F 34.7 °F 37.9 °F 89% 30.12 in 7.0 mi NNE 10.4 mph - 0.02 in Rain Light Rain
9:03 AM 41.0 °F 33.9 °F 37.4 °F 87% 30.08 in 10.0 mi NNE 12.7 mph - N/A Rain Light Rain
9:53 AM 41.0 °F 34.3 °F 37.9 °F 89% 30.11 in 7.0 mi NNE 11.5 mph - 0.01 in Rain Light Rain
10:17 AM 41.0 °F 35.2 °F 37.4 °F 87% 30.07 in 5.0 mi NNE 9.2 mph - 0.00 in Rain Light Rain
10:48 AM 41.0 °F 34.7 °F 39.2 °F 93% 30.07 in 2.5 mi NNE 10.4 mph - 0.02 in Rain Light Rain
10:53 AM 41.0 °F 34.3 °F 39.0 °F 93% 30.10 in 2.5 mi NNE 11.5 mph - 0.02 in Rain Light Rain
11:53 AM 41.0 °F 34.3 °F 39.0 °F 93% 30.10 in 2.5 mi NNE 11.5 mph - 0.02 in Rain Light Rain
12:01 PM 41.0 °F 33.5 °F 39.2 °F 93% 30.06 in 3.0 mi NNE 13.8 mph - 0.00 in Rain Light Rain
12:08 PM 42.8 °F 36.6 °F 39.2 °F 87% 30.06 in 2.0 mi NNE 11.5 mph - 0.00 in Rain Light Rain
12:40 PM 42.8 °F 34.8 °F 39.2 °F 87% 30.04 in 2.5 mi NNE 17.3 mph - 0.00 in   Light Drizzle
12:53 PM 42.8 °F 36.2 °F 39.2 °F 87% 30.04 in 2.5 mi NNE 12.7 mph - N/A   Light Drizzle
12:55 PM 42.8 °F 35.8 °F 39.2 °F 87% 30.04 in 2.5 mi NNE 13.8 mph - 0.00 in Rain Light Rain
1:18 PM 42.8 °F 37.0 °F 39.2 °F 87% 30.03 in 2.5 mi NNE 10.4 mph - 0.01 in Rain Light Rain
1:53 PM 42.1 °F 35.2 °F 39.0 °F 89% 30.06 in 2.5 mi NNE 12.7 mph - 0.04 in Rain Rain
2:01 PM 42.8 °F 35.8 °F 39.2 °F 87% 30.02 in 4.0 mi NNE 13.8 mph - 0.01 in Rain Light Rain
2:53 PM 42.1 °F 35.2 °F 39.9 °F 92% 30.04 in 4.0 mi NNE 12.7 mph 20.7 mph 0.05 in Rain Light Rain
3:53 PM 42.1 °F 35.7 °F 39.0 °F 89% 30.03 in 5.0 mi NNE 11.5 mph - 0.06 in Rain Light Rain
4:39 PM 42.8 °F 36.2 °F 39.2 °F 87% 29.97 in 5.0 mi North 12.7 mph 21.9 mph 0.03 in Rain Light Rain
4:53 PM 42.1 °F 34.5 °F 39.0 °F 89% 30.01 in 5.0 mi NNE 15.0 mph - 0.03 in Rain Light Rain
5:53 PM 42.1 °F 36.1 °F 39.0 °F 89% 30.02 in 5.0 mi NNE 10.4 mph - 0.02 in Rain Light Rain
6:53 PM 42.1 °F 35.2 °F 39.0 °F 89% 29.99 in 5.0 mi North 12.7 mph - 0.00 in   Light Drizzle
7:09 PM 42.8 °F 35.8 °F 39.2 °F 87% 29.97 in 10.0 mi North 13.8 mph - 0.00 in   Light Drizzle
7:41 PM 42.8 °F 36.2 °F 39.2 °F 87% 29.99 in 6.0 mi NNE 12.7 mph - 0.00 in Rain Light Rain
7:53 PM 42.1 °F 35.7 °F 39.0 °F 89% 30.01 in 6.0 mi NNE 11.5 mph - 0.00 in Rain Light Rain
8:18 PM 42.8 °F 37.0 °F 39.2 °F 87% 29.98 in 2.5 mi NNE 10.4 mph - 0.01 in Rain Light Rain
8:53 PM 42.1 °F 34.9 °F 39.0 °F 89% 29.99 in 2.5 mi North 13.8 mph - 0.01 in Rain Light Rain
9:53 PM 42.1 °F 35.7 °F 39.0 °F 89% 29.98 in 4.0 mi NNE 11.5 mph - 0.01 in Rain Light Rain
10:53 PM 42.1 °F 36.6 °F 39.9 °F 92% 29.97 in 3.0 mi North 9.2 mph - 0.01 in Rain Light Rain
11:03 PM 42.8 °F 37.5 °F 39.2 °F 87% 29.94 in 2.5 mi NNE 9.2 mph - 0.00 in Rain Light Rain
11:37 PM 42.8 °F 37.5 °F 39.2 °F 87% 29.93 in 3.0 mi NNE 9.2 mph - 0.00 in Rain Light Rain
11:53 PM 42.1 °F 36.1 °F 39.9 °F 92% 29.95 in 3.0 mi North 10.4 mph - 0.00 in Rain Light Rain